Location: Saint-Usage
(47.1052°N, 5.2587°E)
Time: 02:37:30
(UTC+01:00)

NOAA 19 - Pass Details

Date: 01 December 2021
Orbit: 841 x 860 km, 99.2° (Epoch: 17 January)

Event Time Altitude Azimuth Distance (km) Brightness Sun altitude
Rises 20:09:23 0° 192° (SSW) 3,383 8.5 -32.9°
Reaches altitude 10° 20:12:00 10° 203° (SSW) 2,453 7.8 -33.4°
Maximum altitude 20:16:46 31° 265° (W) 1,448 6.8 -34.2°
Drops below altitude 10° 20:21:35 10° 326° (NW) 2,474 8.0 -35.0°
Sets 20:24:15 0° 337° (NNW) 3,416 8.7 -35.4°
